Hourly Data Report for October 16, 2021

IQALUIT CLIMATE
NUNAVUT
Current Station Operator: ECCC - MSC

63°44'50.000" N
68°32'40.000" W
33.50 m
2402592
71321
XFB

Download Data

Hourly Data (October 2021)
Hourly Data Report for October 16, 2021
TIME
LST
Temp Definition
°C
Dew Point Definition
°C
Rel Hum Definition
%
Precip. Amount Definition
mm

Wind Dir Definition
10's deg

Wind Spd Definition
km/h
Visibility Definition
km
Stn Press Definition
kPa
Hmdx Definition


Wind Chill Definition


Weather Definition


00:00 -3.9 -6.5 82 0.0 10 3   102.29   -5 LegendNANA
01:00 -3.3 -6.0 82 0.0 10 4   102.28   -5 LegendNANA
02:00 -3.3 -5.9 82 0.0 10 4   102.27   -5 LegendNANA
03:00 -4.4 -6.7 84 0.0 11 3   102.28   -6 LegendNANA
04:00 -4.6 -6.6 86 0.0 6 2   102.26   -5 LegendNANA
05:00 -4.5 -6.7 85 0.0 3 4   102.26   -6 LegendNANA
06:00 -3.3 -5.7 84 0.0 4 3   102.25   -5 LegendNANA
07:00 -4.1 -6.4 84 0.0 3 1   102.25   -5 LegendNANA
08:00 -2.4 -4.8 83 0.0 3 3   102.25   -4 LegendNANA
09:00 0.2 -3.6 75 0.0 8 2   102.25     LegendNANA
10:00 0.8 -3.5 73 0.0 14 4   102.22     LegendNANA
11:00 1.2 -3.2 73 0.0 15 5   102.18     LegendNANA
12:00 1.3 -3.1 72 0.0 17 5   102.18     LegendNANA
13:00 0.9 -3.0 75 0.0 10 6   102.17     LegendNANA
14:00 1.8 -4.2 64 0.0 17 4   102.15     LegendNANA
15:00 0.7 -3.4 74 0.0 15 5   102.12     LegendNANA
16:00 -0.3 -3.2 81 0.0 17 2   102.11   -1 LegendNANA
17:00 0.0 -4.0 74 0.0 13 6   102.09   -2 LegendNANA
18:00 -2.4 -4.9 84 0.0 30 3   102.11   -4 LegendNANA
19:00 -3.0 -4.8 87 0.0 4 1   102.12   -3 LegendNANA
20:00 -2.1 -4.6 83 0.0 11 5   102.09   -4 LegendNANA
21:00 -2.1 -5.3 78 0.0 10 6   102.07   -4 LegendNANA
22:00 -0.6 -6.5 64 0.0 13 4   102.06   -2 LegendNANA
23:00 -1.0 -5.8 70 0.0 13 8   102.08   -4 LegendNANA

Notes on Data Quality.

Legend

  • E = Estimated
  • M = Missing
  • NA = Not Available*
  • [empty] = Indicates an unobserved value
Date modified: